DW6267 Weather Reports


Display with metric or nautical units.
time (UTC)temp
F
wind
direction
speed
MPH
gust
MPH
rain 1hr
in
rain 24hr
in
rain mn
in
humidity
%
barometer
mb
20260503070341 41 73 0.0 0.0 0.00 0.00 0.00 92 1015.1
20260503050344 43 73 0.0 0.0 0.00 0.00 0.00 87 1014.4
20260503040400 45 73 0.0 0.0 0.00 0.00 0.00 84 1014.5
20260503030344 48 73 0.0 0.0 0.00 0.00 0.00 78 1013.3
20260503020346 52 73 0.0 0.0 0.00 0.00 0.00 70 1012.8
20260503010354 60 73 0.0 0.0 0.00 0.00 0.00 52 1013.0
20260503000339 69 73 0.0 0.0 0.00 0.00 0.00 39 1013.1
20260502230348 73 123 1.0 0.0 0.00 0.00 0.00 29 1013.4
20260502220330 72 70 0.0 0.0 0.00 0.00 0.00 31 1013.9
20260502210340 73 163 1.0 0.0 0.00 0.00 0.00 29 1013.9
20260502200359 72 99 0.0 0.0 0.00 0.00 0.00 28 1014.5
20260502190337 73 269 0.0 0.0 0.00 0.00 0.00 28 1014.8
20260502180335 70 204 0.0 0.0 0.00 0.00 0.00 42 1014.9
20260502170406 66 204 0.0 0.0 0.00 0.00 0.00 51 1015.3
20260502160331 57 204 0.0 0.0 0.00 0.00 0.00 74 1015.9
20260502150340 46 204 0.0 0.0 0.00 0.00 0.00 89 1015.6
20260502130345 39 204 0.0 0.0 0.00 0.00 0.00 98 1015.9
20260502120411 39 204 0.0 0.0 0.00 0.00 0.00 98 1015.4
20260502110343 40 204 0.0 0.0 0.00 0.00 0.00 95 1015.7
20260502100334 41 204 0.0 0.0 0.00 0.00 0.00 93 1015.3
20260502090343 40 204 0.0 0.0 0.00 0.00 0.00 91 1014.7